Regional Weather Roundup
Issued by NWS

Home | Current Version | Previous Version | Graphics & Text | Print | Product List | Glossary On
Versions: 1 2 3 4 5 6 7 8 9 10 11 12 13 14 15 16 17 18 19 20 21 22 23 24 25 26 27 28 29 30 31 32 33 34 35 36 37 38 39 40 41 42 43 44 45 46 47 48 49 50
000
ASUS43 KBIS 011620
RWRND

NORTH DAKOTA REGIONAL WEATHER ROUNDUP
NATIONAL WEATHER SERVICE BISMARCK ND
1100 AM CDT MON SEP 01 2014

NOTE: "FAIR" INDICATES FEW OR NO CLOUDS BELOW 12,000 FEET WITH NO
SIGNIFICANT WEATHER AND/OR OBSTRUCTIONS TO VISIBILITY.


NDZ001>003-009>011-017-011700-
NORTHWEST NORTH DAKOTA

CITY           SKY/WX    TMP DP  RH WIND       PRES   REMARKS
WILLISTON      SUNNY     64  48  56 W9        29.85S
MINOT          MOSUNNY   63  52  67 W7        29.79R
MINOT AFB      SUNNY     62  54  74 NW7       29.78R
$$

NDZ018>021-031>035-040>046-011700-
SOUTHWEST NORTH DAKOTA

CITY           SKY/WX    TMP DP  RH WIND       PRES   REMARKS
BISMARCK       SUNNY     68  55  63 NW10      29.81R
DICKINSON      MOSUNNY   62  49  62 NW13      29.86R
GARRISON         N/A     64  51  62 NW9       29.81R
HETTINGER ARPT SUNNY     64  52  64 NW13      29.88R
$$

NDZ004>008-012>016-024-026-027-054-011700-
NORTHEAST NORTH DAKOTA

CITY           SKY/WX    TMP DP  RH WIND       PRES   REMARKS
GRAND FORKS    MOSUNNY   68  56  65 CALM      29.70S
GRND FRKS AFB  PTSUNNY   69  59  72 NW5       29.71S
DEVILS LAKE    MOSUNNY   64  54  68 W9        29.73R
$$

NDZ022-023-025-028>030-036>039-047>053-011700-
SOUTHEAST NORTH DAKOTA

CITY           SKY/WX    TMP DP  RH WIND       PRES   REMARKS
FARGO          SUNNY     68  57  68 NW6       29.72S
JAMESTOWN      PTSUNNY   66  55  67 W9        29.76R
$$




USA.gov is the U.S. government's official web portal to all federal, state and local government web resources and services.